Tracking 26951 objects as of 4-Feb-2023
HD Live streaming from Space Station
objects crossing your sky now

SSU 1

Track SSU 1 now!
10-day predictions
SSU 1 is classified as:


NORAD ID: 8835
Int'l Code: 1976-038C
Perigee: 587.7 km
Apogee: 1,343.9 km
Inclination: 63.3 °
Period: 104.2 minutes
Semi major axis: 7336 km
RCS: Unknown
Launch date: April 30, 1976
Source: United States (US)
Launch site: AIR FORCE WESTERN TEST RANGE (AFWTR)
Your satellite tracking list
Your tracking list is empty




NASA's NSSDC Master Catalog

Two Line Element Set (TLE):
1 08835U 76038C   23034.37797896  .00000122  00000-0  83371-4 0  9997
2 08835  63.3459  47.0564 0515335 164.1140 197.6779 13.81480062188805
Source of the keplerian elements: McCants